This demonstration page uses our WeatherBlox Daily Observations layout. Learn more.

Left ArrowRight Arrow

38.83388, -104.82136

Hourly Observations for August 23, 2022

Temp ( °F °C ) Dew Point ( °F °C ) Humidity (%) Winds ( mph kmh ) Pressure ( in mb ) Visibility ( mi km ) Precip ( " mm )
12:58 am 00:58 Clear 64 17.6 47 8.4 55 55 S 6 9 29.71 1006 10 16 0.00 0.00
1:58 am 01:58 Clear 63 17.2 47 8.3 56 56 SW 7 11 29.69 1005 10 16 0.00 0.00
2:58 am 02:58 Clear 64 17.5 47 8.1 54 54 SW 7 11 29.71 1006 10 16 0.00 0.00
3:58 am 03:58 Clear 62 16.4 47 8.1 58 58 SSE 3 6 29.51 999 10 16 0.00 0.00
4:58 am 04:58 Clear 61 15.9 45 7.4 57 57 NW 5 7 29.47 998 10 16 0.00 0.00
5:58 am 05:58 Clear 60 15.3 47 8.3 63 63 Calm 29.47 998 10 16 0.00 0.00
6:58 am 06:58 Sunny 62 16.4 47 8.4 59 59 Calm 29.54 1001 10 16 0.00 0.00
7:58 am 07:58 Sunny 64 17.6 49 9.7 60 60 ESE 5 7 29.72 1006 10 16 0.00 0.00
8:58 am 08:58 Sunny 65 18.5 50 9.8 57 57 SE 6 9 29.78 1008 9 14 0.00 0.00
9:58 am 09:58 Sunny 68 19.9 51 10.6 55 55 SE 13 20 29.79 1009 10 16 0.00 0.00
10:58 am 10:58 Sunny 70 21 50 10.2 50 50 SE 10 17 29.77 1008 10 16 0.00 0.00
11:58 am 11:58 Sunny 73 22.9 51 10.3 45 45 SSE 12 19 29.83 1010 10 16 0.00 0.00
12:58 pm 12:58 Sunny 72 22.2 49 9.4 44 44 ESE 10 17 29.79 1009 10 16 0.00 0.00
1:58 pm 13:58 Sunny 73 22.8 48 8.8 41 41 SE 16 26 29.85 1011 10 16 0.00 0.00
2:58 pm 14:58 Mostly Cloudy 71 21.7 46 7.9 41 41 S 7 11 29.77 1008 10 16 0.00 0.00
3:58 pm 15:58 Partly Cloudy 72 22.3 45 7.3 38 38 S 9 15 29.78 1008 10 16 0.00 0.00
4:58 pm 16:58 Sunny 72 22.2 44 6.4 36 36 SW 6 9 29.82 1010 10 16 0.00 0.00
5:58 pm 17:58 Sunny 71 21.5 42 5.8 36 36 SSW 6 9 29.61 1003 10 16 0.00 0.00
6:58 pm 18:58 Sunny 70 21.1 42 5.4 36 36 S 7 11 29.59 1002 10 16 0.00 0.00
7:58 pm 19:58 Clear 69 20.4 38 3.6 33 33 S 9 15 29.60 1003 10 16 0.00 0.00
8:58 pm 20:58 Clear 68 19.9 36 2.3 31 31 S 6 9 29.60 1003 10 16 0.00 0.00
9:58 pm 21:58 Clear 67 19.4 38 3.5 35 35 S 10 17 29.59 1002 10 16 0.00 0.00

Powered by AerisWeather